[[{"header":{"parameterUnit":"m.s-1","parameterCategory":1,"la1":30.2991,"la2":30.254,"lo1":-89.0895,"lo2":-89.0444,"dy":0.0017,"dx":0.0017,"nx":28,"ny":28,"refTime":"2025-03-04T09:00:00:Z","depth":0,"parameterNumber":2,"parameterNumberName":"U-component_of_WINDS"},"data":[0,0,0,0,0,0,0,0,0,0,0,0,0,0,0,0,0,0,0,0,0,0,0,0,0,0,0,0,0,0,0,0,0,0,0,0,0,0,0,0,0,0,0,0,0,0,0,0,0,0,0,0,0,0,0,0,0,0,8.2176,8.2178,0,8.2375,8.2377,8.238,8.231,8.2305,8.2301,8.2297,8.2504,8.2514,8.2523,0,0,0,0,0,0,0,0,0,0,0,0,0,8.174,8.1749,8.2176,8.2178,8.2181,8.2375,8.2377,8.238,8.231,8.2305,8.23,8.2295,8.2501,8.2512,8.2524,0,0,0,0,0,0,0,0,0,0,0,0,0,8.1934,8.1751,8.2175,8.2169,8.2171,8.2374,8.2378,8.2381,8.2312,8.2305,8.2298,8.2292,8.2497,8.2511,8.2526,8.2748,0,0,8.257,8.2576,0,0,0,0,0,0,0,0,8.1923,8.195,8.2168,8.217,8.2172,8.2311,8.23,8.2504,8.2313,8.2258,8.2296,8.2289,8.2445,8.2464,8.2516,8.2758,8.2767,8.2571,8.258,8.2586,8.259,0,0,0,0,0,0,0,8.1909,8.1941,8.2255,8.2171,8.2174,8.2158,8.2178,8.2338,8.2387,8.2262,8.2258,8.2282,8.2445,8.2502,8.252,8.277,8.2571,8.2584,8.2593,8.2598,8.3208,8.3215,0,0,0,0,0,0,8.1894,8.193,8.2248,8.2261,8.2028,8.2172,8.2194,8.2273,8.2385,8.2395,8.2288,8.2278,8.2481,8.2503,8.2527,8.2798,8.2586,8.26,8.2608,8.3201,8.321,8.3218,0,0,0,0,0,0,8.1885,8.1923,8.224,8.2094,8.2133,8.2186,8.2275,8.228,8.2337,8.2404,8.2412,8.2336,8.2476,8.2507,8.2694,8.2804,8.2606,8.2619,8.3192,8.3203,8.3214,8.3338,0,0,0,0,0,0,8.1873,8.192,8.2004,8.2097,8.2141,8.2403,8.2282,8.2289,8.2362,8.2351,8.2452,8.2462,8.2473,8.2673,8.2709,8.282,8.2631,8.3182,8.3197,8.321,8.3325,8.3353,8.3376,0,0,0,0,0,8.1858,8.2031,8.2009,8.2048,8.2247,8.2409,8.2435,8.2443,8.2371,8.2456,8.25,8.2459,8.2786,8.2693,8.2732,8.285,8.3175,8.3193,8.3209,8.3313,8.3347,8.3376,0,0,0,0,0,0,8.1951,8.2043,8.2019,8.2228,8.2311,8.2397,8.2505,8.2478,8.2585,8.2571,8.2578,8.2601,8.2795,8.2841,8.2735,8.3073,8.297,8.2996,8.3036,8.3068,8.3093,8.3079,8.2643,0,0,0,0,0,8.1996,8.2118,8.2193,8.237,8.2413,8.2452,8.2523,8.2522,8.2609,8.2645,8.2702,8.2789,8.2912,8.2992,8.3108,8.3331,8.3353,8.3431,8.3457,8.3478,8.35,8.3625,8.3661,8.3273,8.3273,8.3273,0,0,8.209,8.2155,8.2232,8.239,8.2455,8.2584,8.2482,8.2622,8.2719,8.2666,8.2847,8.2892,8.2991,8.3197,8.3291,8.3242,8.3613,8.3499,8.3515,8.3527,8.3646,8.3683,8.3715,8.3285,8.3283,8.3281,0,0,8.2327,8.2388,8.2543,8.261,8.2709,8.2734,8.2772,8.2863,8.2891,8.3072,8.3037,8.3152,8.3362,8.3435,8.3499,8.3767,8.3734,8.3805,8.394,8.4061,8.4091,8.4118,8.4217,8.4251,8.3826,8.3827,8.3827,0,8.2431,8.2623,8.2626,8.2771,8.2842,8.28,8.2959,8.3025,8.3157,8.3209,8.3151,8.3416,8.3479,8.3703,8.3769,8.3822,8.3867,8.3793,8.4086,8.4114,8.4139,8.4233,8.4269,8.3835,8.3834,8.3833,8.3832,0,8.2748,8.2881,8.2995,8.3124,8.3209,8.3359,8.3388,8.3474,8.3466,8.3499,8.3686,8.376,8.3892,8.3945,8.3939,8.417,8.4137,8.4083,8.398,8.4184,8.4272,8.4308,8.3846,8.3843,8.3841,8.3839,0,0,8.3049,8.3179,8.3221,8.3281,8.3388,8.3492,8.3642,8.377,8.3845,8.3938,8.4066,8.4246,8.4198,8.4271,8.4273,8.4379,8.459,8.4313,8.4315,8.4364,8.4853,8.4894,8.4935,8.4569,8.4576,8.4581,8.4845,0,8.3297,8.3559,8.3568,8.3809,8.3934,8.3897,8.4028,8.411,8.4144,8.4257,8.4295,8.4424,8.4349,8.4394,8.4497,8.4542,8.4689,8.4523,8.469,8.4696,8.4668,8.4981,8.5025,8.5271,8.488,8.4886,8.489,0,8.3621,8.3724,8.3977,8.4069,8.4122,8.424,8.436,8.4467,8.4559,8.4577,8.4661,8.4648,8.4804,8.4695,8.4912,8.48,8.4868,8.4902,8.4912,8.4929,8.4806,8.5009,8.5349,8.5387,8.4944,8.4939,8.4935,0,8.3819,8.4021,8.4199,8.4251,8.4362,8.4446,8.4496,8.4582,8.4659,8.4765,8.4816,8.4938,8.5006,8.5102,8.5124,8.5042,8.5342,8.5234,8.5364,8.5364,8.543,8.5426,8.5788,8.5471,8.5471,8.547,8.5469,0,8.4096,8.4253,8.429,8.44,8.4576,8.4585,8.476,8.4804,8.4881,8.5001,8.4976,8.509,8.511,8.5229,8.5247,8.5426,8.5456,8.5477,8.548,8.548,8.5478,8.5527,8.5511,8.548,8.5477,8.5476,8.5474,0,8.4347,8.4378,8.457,8.4659,8.4686,8.4812,8.4889,8.4996,8.5028,8.518,8.5216,8.5268,8.5406,8.5437,8.5601,8.5614,8.5827,8.5812,8.5795,8.5795,8.5923,8.5912,8.6331,8.6388,8.6032,8.6035,8.6038,0,8.4522,8.4642,8.4745,8.4822,8.4877,8.5002,8.5082,8.5097,8.5181,8.5296,8.539,8.5525,8.5635,8.5858,8.5912,8.6038,8.6028,8.6166,8.6047,8.6044,8.6033,8.6027,8.604,8.619,8.6193,8.6197,8.6199,0,8.4832,8.4842,8.4956,8.5077,8.5172,8.5268,8.536,8.5426,8.5454,8.555,8.569,8.5775,8.5944,8.608,8.6207,8.6261,8.6237,8.6236,8.6273,8.6276,8.6262,8.6274,8.586,8.6227,8.6224,8.6222,8.622,8.6219,8.5052,8.5158,8.5247,8.5377,8.5447,8.5534,8.5639,8.5685,8.5802,8.594,8.5942,8.6097,8.6189,8.6357,8.6419,8.6542,8.6499,8.6552,8.6566,8.6579,8.6592,8.6241,8.6564,8.6564,8.6563,8.6562,8.6562,0,8.5363,8.5418,8.5537,8.5666,8.5769,8.5735,8.5835,8.5924,8.606,8.6147,8.6255,8.6419,8.6551,8.6615,8.6747,8.6833,8.6826,8.6868,8.6862,8.6876,8.6621,8.6577,8.6872,8.6872,8.6872,8.6872,8.6872,8.6871,8.5536,8.5715,8.5736,8.595,8.6005,8.6155,8.6216,8.6297,8.6367,8.655,8.666,8.67,8.678,8.6917,8.7038,8.7054,8.7104,8.7153,8.7163,8.6925,8.6893,8.6863,8.6822,8.7163,8.7163,8.7408,8.741,8.7412]},{"header":{"parameterUnit":"m.s-1","parameterCategory":1,"la1":30.2991,"la2":30.254,"lo1":-89.0895,"lo2":-89.0444,"dy":0.0017,"dx":0.0017,"nx":28,"ny":28,"refTime":"2025-03-04T09:00:00:Z","depth":0,"parameterNumber":3,"parameterNumberName":"V-component_of_WINDS"},"data":[0,0,0,0,0,0,0,0,0,0,0,0,0,0,0,0,0,0,0,0,0,0,0,0,0,0,0,0,0,0,0,0,0,0,0,0,0,0,0,0,0,0,0,0,0,0,0,0,0,0,0,0,0,0,0,0,0,0,-3.5009,-3.501,0,-3.5086,-3.5086,-3.5087,-3.5105,-3.5105,-3.5104,-3.5104,-3.5179,-3.5182,-3.5184,0,0,0,0,0,0,0,0,0,0,0,0,0,-3.4877,-3.488,-3.5009,-3.501,-3.5011,-3.5085,-3.5087,-3.5088,-3.5105,-3.5105,-3.5104,-3.5103,-3.5178,-3.5181,-3.5184,0,0,0,0,0,0,0,0,0,0,0,0,0,-3.4942,-3.488,-3.5009,-3.5029,-3.5032,-3.5085,-3.5087,-3.5088,-3.5105,-3.5105,-3.5104,-3.5103,-3.5177,-3.5181,-3.5185,-3.5223,0,0,-3.5196,-3.5198,0,0,0,0,0,0,0,0,-3.4938,-3.4947,-3.5025,-3.5028,-3.5031,-3.5085,-3.5068,-3.5133,-3.5106,-3.5077,-3.5104,-3.5103,-3.5148,-3.5154,-3.517,-3.5227,-3.523,-3.5196,-3.5199,-3.52,-3.5201,0,0,0,0,0,0,0,-3.4934,-3.4944,-3.5039,-3.5026,-3.503,-3.5034,-3.5042,-3.508,-3.5116,-3.508,-3.5081,-3.509,-3.515,-3.5167,-3.5172,-3.5231,-3.5196,-3.52,-3.5202,-3.5203,-3.5324,-3.5325,0,0,0,0,0,0,-3.4926,-3.494,-3.5037,-3.5042,-3.4982,-3.5037,-3.5046,-3.5068,-3.5116,-3.5122,-3.5091,-3.5091,-3.5161,-3.5168,-3.5175,-3.5223,-3.52,-3.5204,-3.5206,-3.5323,-3.5324,-3.5325,0,0,0,0,0,0,-3.4923,-3.4935,-3.5034,-3.4991,-3.5004,-3.504,-3.5065,-3.507,-3.5087,-3.5124,-3.513,-3.5101,-3.516,-3.517,-3.5211,-3.5226,-3.5205,-3.5209,-3.5322,-3.5323,-3.5324,-3.532,0,0,0,0,0,0,-3.4919,-3.4934,-3.4949,-3.4992,-3.5006,-3.5069,-3.5066,-3.5072,-3.5094,-3.5095,-3.5136,-3.5142,-3.516,-3.5206,-3.5215,-3.5231,-3.5212,-3.532,-3.5322,-3.5324,-3.5319,-3.5321,-3.5323,0,0,0,0,0,-3.4915,-3.4944,-3.4949,-3.4961,-3.5026,-3.507,-3.5079,-3.51,-3.5095,-3.5111,-3.5134,-3.5141,-3.5223,-3.521,-3.5221,-3.5238,-3.532,-3.5322,-3.5324,-3.5318,-3.5321,-3.5323,0,0,0,0,0,0,-3.4901,-3.495,-3.4956,-3.5,-3.5031,-3.5073,-3.5093,-3.5102,-3.5134,-3.5133,-3.5158,-3.5167,-3.5207,-3.5227,-3.5211,-3.5278,-3.5271,-3.5276,-3.5263,-3.5266,-3.5268,-3.5262,-3.5215,0,0,0,0,0,-3.4903,-3.4935,-3.4976,-3.5011,-3.5026,-3.5057,-3.5077,-3.5091,-3.5124,-3.5136,-3.5163,-3.5194,-3.5227,-3.5248,-3.528,-3.5323,-3.5332,-3.534,-3.5342,-3.5343,-3.5347,-3.5371,-3.5375,-3.5332,-3.5332,-3.5332,0,0,-3.4907,-3.4938,-3.4957,-3.5009,-3.5034,-3.5067,-3.5068,-3.5102,-3.5126,-3.5141,-3.5182,-3.5203,-3.5239,-3.5282,-3.5302,-3.5299,-3.5361,-3.5346,-3.5347,-3.5349,-3.5373,-3.5377,-3.5381,-3.5334,-3.5333,-3.5333,0,0,-3.4932,-3.4959,-3.4991,-3.5017,-3.5056,-3.5077,-3.5085,-3.5126,-3.514,-3.5183,-3.5195,-3.5224,-3.528,-3.5305,-3.5325,-3.5362,-3.5368,-3.5371,-3.5381,-3.5405,-3.5408,-3.5411,-3.5424,-3.5428,-3.5375,-3.5375,-3.5375,0,-3.4932,-3.4982,-3.5006,-3.504,-3.5063,-3.508,-3.5112,-3.5136,-3.5183,-3.5198,-3.5195,-3.5267,-3.5292,-3.5341,-3.535,-3.5366,-3.5375,-3.5366,-3.5406,-3.5409,-3.5412,-3.5425,-3.5429,-3.5375,-3.5375,-3.5375,-3.5375,0,-3.4981,-3.5015,-3.5037,-3.5083,-3.5108,-3.5141,-3.517,-3.5192,-3.5205,-3.5225,-3.5268,-3.53,-3.5339,-3.5352,-3.5363,-3.5402,-3.54,-3.5401,-3.5395,-3.5416,-3.5428,-3.5433,-3.5375,-3.5375,-3.5375,-3.5375,0,0,-3.4997,-3.5058,-3.5065,-3.5087,-3.5132,-3.5158,-3.5192,-3.5232,-3.5251,-3.5283,-3.5312,-3.536,-3.5362,-3.5385,-3.54,-3.5421,-3.5447,-3.542,-3.5421,-3.5423,-3.5492,-3.549,-3.5495,-3.5453,-3.5454,-3.5454,-3.5488,0,-3.5027,-3.5089,-3.5112,-3.5162,-3.5195,-3.5212,-3.5242,-3.5272,-3.5293,-3.5323,-3.5346,-3.5379,-3.538,-3.5394,-3.5415,-3.5439,-3.5461,-3.5437,-3.5479,-3.548,-3.5468,-3.5501,-3.5499,-3.5529,-3.5493,-3.5494,-3.5495,0,-3.507,-3.5104,-3.5158,-3.52,-3.5214,-3.524,-3.5279,-3.5307,-3.5342,-3.5356,-3.5383,-3.5397,-3.5433,-3.5425,-3.5475,-3.5458,-3.5477,-3.5492,-3.5493,-3.5497,-3.5488,-3.5505,-3.554,-3.5544,-3.5502,-3.5502,-3.5501,0,-3.5076,-3.5135,-3.5175,-3.5193,-3.5243,-3.5261,-3.5283,-3.5317,-3.534,-3.5373,-3.5388,-3.5425,-3.5445,-3.5474,-3.5497,-3.549,-3.5545,-3.5539,-3.5557,-3.5556,-3.5566,-3.5565,-3.5604,-3.558,-3.558,-3.558,-3.5579,0,-3.5106,-3.5138,-3.5179,-3.5203,-3.524,-3.5266,-3.5302,-3.5324,-3.5355,-3.5384,-3.5402,-3.5428,-3.5458,-3.5489,-3.5508,-3.5546,-3.5555,-3.5567,-3.5571,-3.5565,-3.5563,-3.5576,-3.5574,-3.5581,-3.5581,-3.558,-3.558,0,-3.5118,-3.5147,-3.5192,-3.5236,-3.5248,-3.5273,-3.531,-3.5335,-3.5357,-3.5394,-3.5404,-3.5438,-3.5475,-3.5502,-3.555,-3.5562,-3.5603,-3.5608,-3.5591,-3.5593,-3.5609,-3.5607,-3.5657,-3.5665,-3.5636,-3.5636,-3.5636,0,-3.5135,-3.5161,-3.5208,-3.5229,-3.5251,-3.5285,-3.5308,-3.5336,-3.5359,-3.5402,-3.5421,-3.546,-3.5492,-3.555,-3.5579,-3.5616,-3.5621,-3.5636,-3.5626,-3.5619,-3.5621,-3.5618,-3.5621,-3.5637,-3.5637,-3.5637,-3.5637,0,-3.5163,-3.5176,-3.5209,-3.5248,-3.5276,-3.5307,-3.5339,-3.5355,-3.5389,-3.5414,-3.5453,-3.5478,-3.5527,-3.5565,-3.5605,-3.5626,-3.5637,-3.564,-3.5646,-3.5639,-3.5629,-3.5634,-3.5594,-3.5639,-3.5639,-3.5639,-3.5638,-3.5638,-3.5178,-3.5201,-3.5238,-3.5275,-3.5302,-3.5332,-3.5357,-3.5383,-3.5416,-3.5459,-3.5473,-3.5513,-3.5548,-3.5603,-3.5625,-3.5657,-3.5656,-3.5665,-3.5667,-3.5668,-3.5668,-3.5625,-3.5664,-3.5664,-3.5664,-3.5664,-3.5664,0,-3.5205,-3.523,-3.5264,-3.5309,-3.5338,-3.5347,-3.5383,-3.5406,-3.5442,-3.5474,-3.5506,-3.555,-3.5588,-3.562,-3.5659,-3.5678,-3.5684,-3.5687,-3.5685,-3.569,-3.5666,-3.5657,-3.5681,-3.5681,-3.5681,-3.5681,-3.5681,-3.5681,-3.5223,-3.5263,-3.5281,-3.5335,-3.536,-3.54,-3.5419,-3.5447,-3.5473,-3.5522,-3.5554,-3.5575,-3.5608,-3.5649,-3.5683,-3.5692,-3.5705,-3.5707,-3.5717,-3.5694,-3.5691,-3.5689,-3.5681,-3.571,-3.571,-3.5738,-3.5738,-3.5738]}]]